#timestamp,LO_Frequency,Hit,StdDev 
1545980415.7,286046999.9,N
1545980435.5,286047001.0,N
1545980455.4,286046999.8,N
1545980475.2,286047002.7,N
1545980495.1,286047000.8,N
1545980496.0,286047000.8,N
1545980515.8,286047001.0,N
1545980535.6,286047001.3,N
1545980555.5,286047001.9,N
1545980575.3,286047005.9,Y
1545980595.1,286047005.7,P
1545980615.9,286047004.3,N
1545980635.7,286047001.3,N
1545980655.6,286047000.1,N
1545980675.4,286047002.8,N
1545980695.2,286047001.9,N
1545980715.1,286046998.5,N
1545980716.0,286046998.5,N
1545980735.8,286046999.6,N
1545980755.6,286046997.3,N
1545980775.5,286046997.4,N
1545980795.3,286046996.8,N
1545980815.2,286046997.9,N
1545980835.9,286046999.5,N
1545980855.7,286046996.5,N
1545980875.6,286046997.3,N
1545980895.4,286046997.8,N
1545980915.2,286046997.5,N
1545980935.1,286047001.2,N
1545980936.0,286047001.2,N
1545980955.8,286047000.8,N
1545980975.7,286046999.3,N
1545980995.5,286046999.0,N
1545981015.3,286046999.4,N
1545981035.2,286047001.0,N
1545981055.0,286046998.6,N
1545981055.9,286046998.6,N
1545981075.7,286046998.6,N
1545981095.6,286046998.1,N
1545981115.4,286047001.2,N
1545981135.3,286046998.9,N
1545981155.1,286047000.8,N
1545981156.0,286047000.8,N
1545981175.8,286047001.9,N
1545981195.7,286047004.3,N
1545981215.5,286047000.6,N
1545981235.3,286047001.0,N
1545981255.2,286047001.1,N
1545981275.0,286046999.3,N
1545981275.9,286046999.3,N
1545981295.8,286047000.5,N
1545981315.6,286047000.8,N
1545981335.4,286046999.4,N
1545981355.3,286046999.6,N
1545981375.1,286046997.1,N
1545981395.8,286046997.7,N
1545981415.7,286046998.7,N
1545981435.5,286047001.0,N
1545981455.4,286046999.4,N
1545981475.2,286046998.6,N
1545981495.0,286046998.9,N
1545981495.9,286046998.9,N
1545981515.8,286046998.8,N
1545981535.6,286047000.0,N
1545981555.4,286047002.5,N
1545981575.3,286047001.2,N
1545981595.1,286046999.3,N
1545981615.9,286046999.0,N
1545981635.7,286046997.7,N
1545981655.5,286047000.7,N
1545981675.4,286047000.4,N
1545981695.2,286047001.0,N
1545981715.0,286046998.8,N
1545981715.9,286046998.8,N
1545981735.8,286047000.6,N
1545981755.6,286046999.7,N
1545981775.5,286047000.7,N
1545981795.3,286046998.9,N
1545981815.1,286046997.2,N
1545981835.9,286046996.8,N
1545981855.7,286046995.4,Y
1545981875.5,286046995.1,P
1545981895.4,286046995.0,N
1545981915.2,286046995.4,N
1545981935.1,286046995.1,N
1545981936.0,286046995.1,N
1545981955.8,286046995.6,N
1545981975.6,286046998.0,N
1545981995.5,286046996.7,N
1545982015.3,286046999.3,N
1545982035.1,286046999.5,N
1545982055.9,286046997.3,N
1545982075.7,286046995.2,N
1545982095.6,286046999.6,N
1545982115.4,286046995.1,N
1545982135.2,286046995.7,N
1545982155.1,286046999.0,N
1545982156.0,286046999.0,N
1545982175.8,286046999.2,N
1545982195.6,286046998.8,N
1545982215.5,286047000.7,N
1545982235.3,286047000.8,N
1545982255.2,286046998.8,N
1545982275.9,286046999.6,N
1545982295.7,286046996.7,N
1545982315.6,286046996.5,N
1545982335.4,286046999.3,N
1545982355.2,286046995.0,N
1545982375.1,286046995.4,N
1545982376.0,286046995.4,N
1545982395.8,286046995.3,N
1545982415.7,286046997.7,N
1545982435.5,286046996.7,N
1545982455.3,286046999.0,N
1545982475.2,286046997.0,N
1545982495.9,286046997.0,N
1545982515.7,286046996.7,N
1545982535.6,286046997.7,N
1545982555.4,286046997.3,N
1545982575.3,286046999.2,N
1545982595.1,286046998.6,N
1545982596.0,286046998.6,N
1545982615.8,286046997.1,N
1545982635.7,286046996.1,N
1545982655.5,286046995.5,N
1545982675.3,286046996.7,N
1545982695.2,286046998.4,N
1545982715.0,286046999.4,N
1545982715.9,286046999.4,N
1545982735.8,286046997.3,N
1545982755.6,286046996.9,N
1545982775.4,286046999.4,N
1545982795.3,286047001.0,N
1545982815.1,286047002.8,N
1545982835.8,286046998.6,N
1545982855.7,286047000.2,N
1545982875.5,286047002.3,N
1545982895.4,286047000.9,N
1545982915.2,286047000.4,N
1545982935.0,286047002.3,N
1545982935.9,286047002.3,N
1545982955.8,286047002.8,N
1545982975.6,286047000.7,N
1545982995.4,286046999.6,N
1545983015.3,286046995.0,N
1545983035.1,286046995.1,N
1545983055.9,286046997.7,N
1545983075.7,286046999.5,N
1545983095.5,286046997.7,N
1545983115.4,286046997.9,N
1545983135.2,286046996.5,N
1545983155.0,286046997.5,N
1545983155.9,286046997.5,N
1545983175.8,286046999.5,N
1545983195.6,286046998.8,N
1545983215.5,286046998.2,N
1545983235.3,286046997.7,N
1545983255.1,286046999.4,N
1545983275.9,286046996.5,N
1545983295.7,286046997.7,N
1545983315.5,286046995.4,N
1545983335.4,286046997.5,N
1545983355.2,286046997.8,N
1545983375.1,286046998.0,N
1545983376.0,286046998.0,N
1545983395.8,286046995.4,N
1545983415.6,286046994.9,N
1545983435.5,286046997.6,N
1545983455.3,286046997.7,N
1545983475.1,286046998.0,N
1545983495.9,286046998.0,N
1545983515.7,286046998.8,N
1545983535.6,286046998.4,N
1545983555.4,286046996.6,N
1545983575.2,286046995.5,Y
1545983595.1,286046996.9,P
1545983596.0,286046996.9,P
1545983615.8,286046996.6,P
1545983635.6,286046996.8,Y
1545983655.5,286047000.7,P
1545983675.3,286047000.0,N
1545983695.2,286047000.9,N
1545983715.9,286046998.4,N
1545983735.7,286047001.1,N
1545983755.6,286047000.4,N
1545983775.4,286047000.6,N
1545983795.2,286047000.9,N
1545983815.1,286046999.8,N
1545983816.0,286046999.8,N
1545983835.8,286047001.4,N
1545983855.7,286047003.5,N
1545983875.5,286047006.0,Y
1545983895.3,286047005.3,P
1545983915.2,286047003.8,N
1545983935.0,286047003.3,N
1545983935.9,286047003.3,N
1545983955.8,286047004.1,N
1545983975.6,286047004.0,N
1545983995.4,286047003.9,N
